Tracking 23610 objects as of 20-Sep-2021
HD Live streaming from Space Station
objects crossing your sky now

STARLINK-2587

Track STARLINK-2587 now!
10-day predictions
STARLINK-2587 is classified as:


NORAD ID: 48399
Int'l Code: 2021-038AY
Perigee: 552.7 km
Apogee: 555.9 km
Inclination: 53.1 °
Period: 95.6 minutes
Semi major axis: 6925 km
RCS: Unknown
Launch date: May 4, 2021
Source: United States (US)
Launch site: AIR FORCE EASTERN TEST RANGE (AFETR)
aabbcc
Your satellite tracking list
Your tracking list is empty




NASA's NSSDC Master Catalog

Two Line Element Set (TLE):
1 48399U 21038AY  21263.25001157 -.00033790  00000-0 -22594-2 0  9990
2 48399  53.0542 105.4276 0002338  99.6007 112.1721 15.06412636 21996
Source of the keplerian elements: AFSPC